Regional Weather Roundup
Issued by NWS

Home | Current Version | Previous Version | Graphics & Text | Print | Product List | Glossary On
Versions: 1 2 3 4 5 6 7 8 9 10 11 12 13 14 15 16 17 18 19 20 21 22 23 24 25 26 27
000
ASUS45 KCYS 020410
RWRWY

WYOMING REGIONAL WEATHER ROUNDUP
NATIONAL WEATHER SERVICE CHEYENNE WY
1000 PM MDT SUN MAY 01 2016

NOTE:  "FAIR" INDICATES FEW OR NO CLOUDS BELOW 12,000 FEET
WITH NO SIGNIFICANT WEATHER AND/OR OBSTRUCTIONS TO VISIBILITY.

WYZ001-020500-
YELLOWSTONE NATIONAL PARK

CITY           SKY/WX    TMP DP  RH WIND       PRES   REMARKS
LK YELLOWSTONE   N/A     28  18  66 CALM      30.28R
W YELLOWSTONE  NOT AVBL

$$
WYZ002>013-054>058-071-098>099-020500-
NORTHERN WYOMING

CITY           SKY/WX    TMP DP  RH WIND       PRES   REMARKS
JACKSON        FAIR      45  18  33 N12       30.20R
CODY           FAIR      45  25  45 S3        30.24R
GREYBULL       FAIR      50  25  37 CALM      30.21R
WORLAND        FAIR      41  33  73 S8        30.22R
SHERIDAN       FAIR      41  33  73 SW5       30.23R
BUFFALO          N/A    N/A N/A N/A MISG      30.26R
GILLETTE       FAIR      33  30  88 S3        30.25R
HULETT         FAIR      41  32  70 S9        30.25S
NEWCASTLE      MOCLDY    46  28  49 SE6       30.25R

$$
WYZ014>020-022>026-101>103-020500-
CENTRAL WYOMING

CITY           SKY/WX    TMP DP  RH WIND       PRES   REMARKS
BIG PINEY      FAIR      32  19  58 SW9       30.26R WCI  24
PINEDALE       FAIR      36  19  51 SW8       30.25R WCI  29
DUBOIS         NOT AVBL
LANDER         FAIR      39  26  59 SW12      30.25R WCI  32
RIVERTON       FAIR      45  24  43 CALM      30.27R
CASPER         FAIR      31  25  78 W3        30.26R
DOUGLAS        FAIR      36  29  75 CALM      30.28R

$$
WYZ021-027>030-104>119-020500-
SOUTHERN WYOMING

CITY           SKY/WX    TMP DP  RH WIND       PRES   REMARKS
EVANSTON       FAIR      36  23  59 E17       30.21R WCI  26
KEMMERER         N/A     32  23  69 E10       30.25R WCI  24
FORT BRIDGER   CLEAR     34  28  80 E12       30.26R WCI  25
ROCK SPRINGS   FAIR      36  24  62 NE20      30.23R WCI  25
DIXON          FAIR      38  17  42 E10       30.18R WCI  31
RAWLINS        FAIR      29  21  72 CALM      30.26R
SARATOGA       FAIR      32  19  59 S16       30.24R WCI  21
LARAMIE        FAIR      25  18  74 SE6       30.27R WCI  18
CHEYENNE       FAIR      31  23  72 W7        30.28R WCI  24
TORRINGTON     FAIR      40  32  73 CALM      30.26R
PINE BLUFFS    FAIR      32  28  86 W7        30.29R WCI  26

$$




USA.gov is the U.S. government's official web portal to all federal, state and local government web resources and services.